Regional Weather Roundup
Issued by NWS

Home | Current Version | Previous Version | Graphics & Text | Print | Product List | Glossary On
Versions: 1 2 3 4 5 6 7 8 9 10 11 12 13 14 15 16 17 18 19 20 21 22 23 24 25 26 27 28 29 30 31 32 33 34 35 36 37 38 39 40 41 42 43 44 45 46 47 48 49 50
000
ASUS43 KIND 270009
RWRIN

WEATHER ROUNDUP FOR INDIANA
NATIONAL WEATHER SERVICE INDIANAPOLIS IN
800 PM EDT TUE AUG 26 2014

NOTE: "FAIR" INDICATES FEW OR NO CLOUDS BELOW 12,000 FEET WITH NO
SIGNIFICANT WEATHER AND/OR OBSTRUCTIONS TO VISIBILITY.

* - STATION DOES NOT REPORT WEATHER SUCH AS PRECIPITATION OR FOG.

+ - STATION NOT QUALITY CONTROLLED BY THE NATIONAL WEATHER SERVICE.
    USE DATA WITH CAUTION...ESPECIALLY DEWPOINT AND RELATIVE
    HUMIDITY OBSERVATIONS.

INZ001>003-010>013-019-020-270100-
NORTHWEST INDIANA

CITY           SKY/WX    TMP DP  RH WIND       PRES   REMARKS
GARY /AIRPORT/ PTCLDY    75  70  83 NE6       30.08R
KNOX *+        CLEAR     76  71  84 NE3       30.07R
LA PORTE +     CLEAR     74  74  98 N6        30.08F
6HR MIN TEMP:  69; 6HR MAX TEMP:  77; 6HR PCP:  0.01;

MICHIGAN CITY+ MOCLDY    70  70 100 NE6       30.08S
MONTICELLO +   PTCLDY    75  69  81 CALM      30.05S
RENSSELAER +   CLEAR     77  73  88 CALM      30.06S
VALPARAISO     CLEAR     76  71  85 CALM      30.07F
6HR MIN TEMP:  69; 6HR MAX TEMP:  79; 6HR PCP: TRACE;


$$

LMZ046-743>745-270100-
SOUTHERN LAKE MICHIGAN

STATION/POSITION TIME  TEMP WIND        PRES
                       AIR  DIR/SP/G
                 (UTC) (F)  (DEG/KT/KT) (MB)
MICHIGAN CITY    0000   71   10/ 10/ 12   N/A

$$

INZ004-005-014>016-021>024-270100-
NORTH CENTRAL INDIANA

CITY           SKY/WX    TMP DP  RH WIND       PRES   REMARKS
GOSHEN         PTCLDY    76  71  85 S3        30.09R
6HR MIN TEMP:  72; 6HR MAX TEMP:  78; 6HR PCP:  0.02;

LOGANSPORT +   MOCLDY    72  68  88 CALM      30.07F
PERU/GRISSOM   MOCLDY    74  74 100 E2        30.07F
6HR MIN TEMP:  73; 6HR MAX TEMP:  86; 6HR PCP:  0.03;

ROCHESTER +    PTCLDY    75  72  88 CALM      30.08S
SOUTH BEND     PTCLDY    76  70  82 NW5       30.08S
6HR MIN TEMP:  70; 6HR MAX TEMP:  78; 6HR PCP:  0.06;

WARSAW +       MOCLDY    73  68  83 CALM      30.08F

$$

INZ006>009-017-018-025>027-270100-
NORTHEAST INDIANA

CITY           SKY/WX    TMP DP  RH WIND       PRES   REMARKS
ANGOLA *+      PTCLDY    75  72  88 W3        30.08R
AUBURN +       CLOUDY    77  70  78 CALM      30.08F
FORT WAYNE     CLOUDY    77  70  79 CALM      30.09R
6HR MIN TEMP:  76; 6HR MAX TEMP:  86;

HUNTINGTON +   CLOUDY    75  70  82 CALM      30.07S
6HR MIN TEMP:  75; 6HR MAX TEMP:  82;


$$

INZ028-029-035-036-043>045-051>053-270100-
WEST CENTRAL INDIANA

CITY           SKY/WX    TMP DP  RH WIND       PRES   REMARKS
GREENCASTLE +  CLOUDY    73  70  88 CALM      30.09S
LAFAYETTE      MOCLDY    73  69  87 CALM      30.05S
6HR MIN TEMP:  70; 6HR MAX TEMP:  87; 6HR PCP:  0.14;

TERRE HAUTE    MOCLDY    75  72  90 S3        30.07F
6HR MIN TEMP:  73; 6HR MAX TEMP:  91; 6HR PCP:  0.15;


$$

INZ030>032-037>040-046>048-054>057-064-065-270100-
CENTRAL INDIANA

CITY           SKY/WX    TMP DP  RH WIND       PRES   REMARKS
CP ATTERBURY + MOCLDY    73  68  83 SE3       30.08F
COLUMBUS       CLEAR     77  70  78 CALM      30.07F
FRANKFORT +    CLOUDY   N/A N/A N/A S3        30.08F
INDIANAPOLIS   MOCLDY    76  69  79 CALM      30.06F
6HR MIN TEMP:  75; 6HR MAX TEMP:  93; 6HR PCP:  0.26;

-EAGLE CREEK   MOCLDY    77  67  71 CALM      30.07S
6HR MIN TEMP:  76; 6HR MAX TEMP:  91;

KOKOMO *+      CLOUDY    73  70  88 SE5       30.07F
MARION +       CLOUDY    73  69  86 CALM      30.09F
MT COMFORT *+  CLOUDY    73 N/A N/A NW7       30.07S
SHELBYVILLE    CLOUDY    76  69  79 SE3       30.05F
6HR MIN TEMP:  76; 6HR MAX TEMP:  92; 6HR PCP: TRACE;

ZIONSVILLE +   CLOUDY    74  69  83 CALM      30.09S
6HR MIN TEMP:  73; 6HR MAX TEMP:  89; 6HR PCP:  0.01;


$$

INZ033-034-041-042-049-050-058-059-270100-
EAST CENTRAL INDIANA

CITY           SKY/WX    TMP DP  RH WIND       PRES   REMARKS
MUNCIE         CLOUDY    77  70  79 N3        30.08R
6HR MIN TEMP:  77; 6HR MAX TEMP:  88;


$$

INZ060-061-067>069-081>083-085>088-270100-
SOUTHWEST INDIANA

CITY           SKY/WX    TMP DP  RH WIND       PRES   REMARKS
EVANSVILLE     CLEAR     88  74  63 CALM      30.06R HX  96
6HR MIN TEMP:  88; 6HR MAX TEMP:  94;

WASHINGTON +   MOCLDY    80  73  81 N6        30.08R
6HR MIN TEMP:  80; 6HR MAX TEMP:  91;


$$

INZ062-063-066-070>080-084-089>092-270100-
SOUTH CENTRAL AND SOUTHEAST INDIANA

CITY           SKY/WX    TMP DP  RH WIND       PRES   REMARKS
BLOOMINGTON    PTCLDY    77  71  82 CALM      30.09S
6HR MIN TEMP:  77; 6HR MAX TEMP:  92;

SEYMOUR +      MOCLDY    75  64  69 CALM      30.07S

$$



USA.gov is the U.S. government's official web portal to all federal, state and local government web resources and services.